This demonstration page uses our WeatherBlox Daily Observations layout. Learn more.

Left ArrowRight Arrow

Hourly Observations for February 23, 2016

Temp ( °F °C ) Dew Point ( °F °C ) Humidity (%) Winds ( mph kmh ) Pressure ( in mb ) Visibility ( mi km ) Precip ( " mm )
12:58 am 00:58 Cloudy 34 1.1 32 -0.1 92 92 SSE 3 6 30.09 1019 10 16 0.00 0.00
1:58 am 01:58 Cloudy 34 0.9 32 -0.1 93 93 SE 2 4 30.07 1018 10 16 0.00 0.00
2:58 am 02:58 Partly Cloudy 34 1 31 -0.6 89 89 SE 5 7 30.06 1018 10 16 0.00 0.00
3:58 am 03:58 Mostly Cloudy 35 1.7 31 -0.5 86 86 SSW 2 4 30.06 1018 10 16 0.00 0.00
4:32 am 04:32 Cloudy with Light Rain 32 0 32 0 100 100 E 1 2 30.09 1019 10 16 0.00 0.00
4:50 am 04:50 Cloudy 32 0 32 0 100 100 Calm 30.09 1019 10 16 0.00 0.00
4:58 am 04:58 Cloudy 33 0.7 33 0.3 97 97 E 2 4 30.08 1019 10 16 0.00 0.03
5:58 am 05:58 Mostly Cloudy 32 0.1 32 0 99 99 Calm 30.08 1019 10 16 0.00 0.00
6:58 am 06:58 Mostly Cloudy 29 -1.9 28 -2 99 99 Calm 30.08 1019 10 16 0.00 0.00
7:58 am 07:58 Mostly Cloudy 32 0.2 32 0.1 99 99 SSW 2 4 30.11 1020 10 16 0.00 0.00
8:58 am 08:58 Mostly Sunny 35 1.6 33 0.5 93 93 SSE 2 4 30.11 1020 10 16 0.00 0.00
9:58 am 09:58 Sunny 40 4.4 34 1 79 79 SW 6 9 30.10 1019 10 16 0.00 0.00
10:58 am 10:58 Sunny 45 7 36 2 71 71 W 8 13 30.09 1019 10 16 0.00 0.00
11:58 am 11:58 Partly Cloudy 46 8 35 1.8 65 65 NW 7 11 30.08 1019 10 16 0.00 0.00
12:58 pm 12:58 Mostly Cloudy 47 8.6 35 1.8 63 63 NW 10 17 30.07 1018 10 16 0.00 0.00
1:58 pm 13:58 Mostly Cloudy 48 9 34 1 58 58 WNW 15 24 30.05 1018 10 16 0.00 0.00
2:58 pm 14:58 Partly Cloudy 47 8.4 32 0.1 56 56 N 15 24 30.04 1017 10 16 0.00 0.00
3:58 pm 15:58 Mostly Cloudy 46 7.5 34 0.9 63 63 N 13 20 30.05 1018 10 16 0.00 0.00
4:58 pm 16:58 Sunny 43 6.3 29 -1.6 57 57 N 13 20 30.07 1018 10 16 0.00 0.00
5:58 pm 17:58 Partly Cloudy 42 5.6 29 -1.8 59 59 N 9 15 30.09 1019 10 16 0.00 0.00
6:58 pm 18:58 Mostly Clear 40 4.6 30 -1.3 66 66 N 12 19 30.10 1019 10 16 0.00 0.00
7:58 pm 19:58 Clear 38 3.2 29 -1.8 70 70 N 10 17 30.12 1020 10 16 0.00 0.00
8:58 pm 20:58 Clear 35 1.7 27 -2.6 73 73 N 10 17 30.12 1020 10 16 0.00 0.00
9:58 pm 21:58 Clear 33 0.8 27 -2.6 78 78 N 10 17 30.12 1020 10 16 0.00 0.00
10:58 pm 22:58 Clear 33 0.3 27 -3 79 79 N 7 11 30.10 1019 10 16 0.00 0.00
11:58 pm 23:58 Clear 32 0 26 -3.1 80 80 N 8 13 30.09 1019 10 16 0.00 0.00

Powered by AerisWeather